| time (UTC) | temp C | wind direction | speed KPH | gust KPH | rain 1hr cm | rain 24hr cm | rain mn cm | humidity % | barometer mb |
| 20260905064505 | 30 | 208 | 0.0 | 3.2 | 0.00 | 0.00 | 0.00 | 63 | 991.0 |
| 20260905063006 | 30 | 216 | 0.0 | 6.4 | 0.00 | 0.00 | 0.00 | 62 | 990.9 |
| 20260905061503 | 30 | 227 | 3.2 | 8.0 | 0.00 | 0.00 | 0.00 | 62 | 991.0 |
| 20260905060003 | 30 | 199 | 1.6 | 6.4 | 0.00 | 0.00 | 0.00 | 61 | 990.9 |
| 20260905054603 | 30 | 105 | 0.0 | 9.7 | 0.00 | 0.00 | 0.00 | 61 | 990.9 |
| 20260905053109 | 30 | 125 | 1.6 | 8.0 | 0.00 | 0.00 | 0.00 | 60 | 990.7 |
| 20260905051555 | 31 | 188 | 4.8 | 9.7 | 0.00 | 0.00 | 0.00 | 59 | 990.7 |
| 20260905050052 | 31 | 189 | 1.6 | 6.4 | 0.00 | 0.00 | 0.00 | 59 | 990.7 |
| 20260905044552 | 31 | 228 | 1.6 | 8.0 | 0.00 | 0.00 | 0.00 | 58 | 990.7 |
| 20260905043055 | 31 | 212 | 3.2 | 8.0 | 0.00 | 0.00 | 0.00 | 57 | 990.6 |
| 20260905041552 | 31 | 158 | 1.6 | 14.5 | 0.00 | 0.00 | 0.00 | 56 | 990.6 |
| 20260905040051 | 32 | 167 | 3.2 | 11.3 | 0.00 | 0.00 | 0.00 | 55 | 990.6 |
| 20260905034551 | 32 | 122 | 3.2 | 12.9 | 0.00 | 0.00 | 0.00 | 52 | 990.8 |
| 20260905033054 | 32 | 159 | 1.6 | 6.4 | 0.00 | 0.00 | 0.00 | 50 | 990.7 |
| 20260905031553 | 32 | 129 | 3.2 | 9.7 | 0.00 | 0.00 | 0.00 | 49 | 990.5 |
| 20260905030054 | 32 | 141 | 1.6 | 8.0 | 0.00 | 0.00 | 0.00 | 49 | 990.4 |
| 20260905024615 | 33 | 110 | 1.6 | 8.0 | 0.00 | 0.00 | 0.00 | 48 | 990.2 |
| 20260905023051 | 33 | 119 | 3.2 | 11.3 | 0.00 | 0.00 | 0.00 | 48 | 990.1 |
| 20260905021547 | 33 | 238 | 1.6 | 9.7 | 0.00 | 0.00 | 0.00 | 48 | 989.8 |
| 20260905020050 | 33 | 118 | 1.6 | 9.7 | 0.00 | 0.00 | 0.00 | 47 | 989.6 |
| 20260905014546 | 33 | 165 | 1.6 | 8.0 | 0.00 | 0.00 | 0.00 | 47 | 989.4 |
| 20260905013045 | 33 | 111 | 4.8 | 14.5 | 0.00 | 0.00 | 0.00 | 47 | 989.2 |
| 20260905011552 | 33 | 138 | 4.8 | 9.7 | 0.00 | 0.00 | 0.00 | 47 | 989.1 |
| 20260905010044 | 34 | 70 | 3.2 | 12.9 | 0.00 | 0.00 | 0.00 | 47 | 989.0 |
| 20260905004550 | 34 | 141 | 6.4 | 12.9 | 0.00 | 0.00 | 0.00 | 47 | 988.7 |
| 20260905003040 | 35 | 170 | 3.2 | 12.9 | 0.00 | 0.00 | 0.00 | 47 | 988.5 |
| 20260905001539 | 35 | 174 | 3.2 | 14.5 | 0.00 | 0.00 | 0.00 | 46 | 988.4 |
| 20260905000038 | 35 | 113 | 3.2 | 9.7 | 0.00 | 0.00 | 0.00 | 45 | 988.4 |
| 20260904234545 | 35 | 162 | 6.4 | 14.5 | 0.00 | 0.00 | 0.00 | 45 | 988.5 |
| 20260904233052 | 36 | 109 | 3.2 | 12.9 | 0.00 | 0.00 | 0.00 | 44 | 988.3 |
| 20260904231532 | 36 | 157 | 3.2 | 12.9 | 0.00 | 0.00 | 0.00 | 42 | 988.4 |
| 20260904230033 | 36 | 165 | 1.6 | 9.7 | 0.00 | 0.00 | 0.00 | 42 | 988.4 |
| 20260904224539 | 36 | 115 | 1.6 | 11.3 | 0.00 | 0.00 | 0.00 | 42 | 988.5 |
| 20260904223035 | 36 | 150 | 3.2 | 12.9 | 0.00 | 0.00 | 0.00 | 42 | 988.6 |
| 20260904221524 | 36 | 113 | 4.8 | 9.7 | 0.00 | 0.00 | 0.00 | 40 | 988.5 |
| 20260904220023 | 36 | 177 | 0.0 | 9.7 | 0.00 | 0.00 | 0.00 | 41 | 988.6 |
| 20260904214535 | 36 | 207 | 3.2 | 11.3 | 0.00 | 0.00 | 0.00 | 40 | 988.7 |
| 20260904213017 | 37 | 100 | 3.2 | 12.9 | 0.00 | 0.00 | 0.00 | 41 | 988.9 |
| 20260904211515 | 37 | 198 | 3.2 | 12.9 | 0.00 | 0.00 | 0.00 | 43 | 989.0 |
| 20260904210011 | 36 | 176 | 6.4 | 14.5 | 0.00 | 0.00 | 0.00 | 42 | 989.2 |
| 20260904204509 | 37 | 160 | 4.8 | 16.1 | 0.00 | 0.00 | 0.00 | 42 | 989.4 |
| 20260904203006 | 36 | 127 | 6.4 | 20.9 | 0.00 | 0.00 | 0.00 | 42 | 989.5 |
| 20260904201502 | 36 | 203 | 6.4 | 12.9 | 0.00 | 0.00 | 0.00 | 43 | 989.7 |
| 20260904200101 | 36 | 115 | 4.8 | 14.5 | 0.00 | 0.00 | 0.00 | 44 | 990.1 |
| 20260904194559 | 36 | 92 | 3.2 | 14.5 | 0.00 | 0.00 | 0.00 | 45 | 990.2 |
| 20260904193052 | 36 | 91 | 8.0 | 20.9 | 0.00 | 0.00 | 0.00 | 48 | 990.4 |
| 20260904191549 | 35 | 46 | 3.2 | 16.1 | 0.00 | 0.00 | 0.00 | 48 | 990.6 |
| 20260904190047 | 35 | 246 | 6.4 | 14.5 | 0.00 | 0.00 | 0.00 | 49 | 990.8 |
| 20260904184559 | 35 | 101 | 6.4 | 14.5 | 0.00 | 0.00 | 0.00 | 51 | 991.0 |
| 20260904183040 | 35 | 188 | 3.2 | 22.5 | 0.00 | 0.00 | 0.00 | 52 | 991.2 |
| 20260904181541 | 34 | 131 | 6.4 | 17.7 | 0.00 | 0.00 | 0.00 | 53 | 991.4 |
| 20260904180039 | 33 | 131 | 3.2 | 17.7 | 0.00 | 0.00 | 0.00 | 54 | 991.6 |
| 20260904174531 | 33 | 163 | 1.6 | 8.0 | 0.00 | 0.00 | 0.00 | 56 | 991.7 |
| 20260904173029 | 33 | 265 | 1.6 | 11.3 | 0.00 | 0.00 | 0.00 | 55 | 992.0 |
| 20260904171527 | 32 | 302 | 3.2 | 11.3 | 0.00 | 0.00 | 0.00 | 57 | 992.2 |
| 20260904170023 | 32 | 236 | 4.8 | 14.5 | 0.00 | 0.00 | 0.00 | 57 | 992.4 |
| 20260904164521 | 31 | 229 | 3.2 | 11.3 | 0.00 | 0.00 | 0.00 | 59 | 992.5 |
| 20260904163024 | 31 | 256 | 3.2 | 11.3 | 0.00 | 0.00 | 0.00 | 60 | 992.5 |
| 20260904161519 | 31 | 240 | 4.8 | 12.9 | 0.00 | 0.00 | 0.00 | 60 | 992.6 |
| 20260904160016 | 30 | 219 | 3.2 | 14.5 | 0.00 | 0.00 | 0.00 | 64 | 992.5 |
| 20260904154511 | 30 | 211 | 6.4 | 11.3 | 0.00 | 0.00 | 0.00 | 65 | 992.4 |
| 20260904153010 | 30 | 200 | 3.2 | 11.3 | 0.00 | 0.00 | 0.00 | 68 | 992.4 |
| 20260904151508 | 30 | 214 | 4.8 | 14.5 | 0.00 | 0.00 | 0.00 | 70 | 992.3 |
| 20260904150012 | 28 | 329 | 3.2 | 9.7 | 0.00 | 0.00 | 0.00 | 76 | 992.3 |
| 20260904144501 | 28 | 291 | 6.4 | 12.9 | 0.00 | 0.00 | 0.00 | 78 | 992.3 |
| 20260904143058 | 27 | 111 | 4.8 | 14.5 | 0.00 | 0.00 | 0.00 | 80 | 992.3 |
| 20260904141611 | 27 | 217 | 1.6 | 8.0 | 0.00 | 0.00 | 0.00 | 81 | 992.4 |
| 20260904140055 | 26 | 78 | 3.2 | 9.7 | 0.00 | 0.00 | 0.00 | 82 | 992.3 |
| 20260904134550 | 26 | 149 | 3.2 | 8.0 | 0.00 | 0.00 | 0.00 | 82 | 992.2 |
| 20260904133048 | 26 | 144 | 3.2 | 8.0 | 0.00 | 0.00 | 0.00 | 82 | 992.1 |
| 20260904131605 | 26 | 123 | 4.8 | 14.5 | 0.00 | 0.00 | 0.00 | 82 | 992.0 |
| 20260904130044 | 26 | 98 | 3.2 | 11.3 | 0.00 | 0.00 | 0.00 | 82 | 991.8 |
| 20260904124544 | 26 | 157 | 3.2 | 12.9 | 0.00 | 0.00 | 0.00 | 82 | 991.6 |
| 20260904123055 | 26 | 108 | 1.6 | 11.3 | 0.00 | 0.00 | 0.00 | 82 | 991.5 |
| 20260904121537 | 26 | 137 | 3.2 | 6.4 | 0.00 | 0.00 | 0.00 | 82 | 991.4 |
| 20260904120034 | 26 | 151 | 1.6 | 6.4 | 0.00 | 0.00 | 0.00 | 82 | 991.3 |
| 20260904114542 | 26 | 136 | 1.6 | 8.0 | 0.00 | 0.00 | 0.00 | 82 | 991.2 |
| 20260904113033 | 26 | 178 | 1.6 | 6.4 | 0.00 | 0.00 | 0.00 | 82 | 991.2 |
| 20260904111533 | 26 | 224 | 0.0 | 8.0 | 0.00 | 0.00 | 0.00 | 82 | 991.1 |
| 20260904110035 | 26 | 158 | 1.6 | 8.0 | 0.00 | 0.00 | 0.00 | 82 | 991.1 |
| 20260904104529 | 26 | 143 | 1.6 | 6.4 | 0.00 | 0.00 | 0.00 | 82 | 990.9 |
| 20260904103028 | 26 | 113 | 0.0 | 4.8 | 0.00 | 0.00 | 0.00 | 82 | 990.9 |
| 20260904101527 | 26 | 121 | 0.0 | 4.8 | 0.00 | 0.00 | 0.00 | 82 | 990.8 |
| 20260904100027 | 26 | 93 | 1.6 | 8.0 | 0.00 | 0.00 | 0.00 | 81 | 990.8 |
| 20260904094526 | 26 | 166 | 0.0 | 6.4 | 0.00 | 0.00 | 0.00 | 81 | 990.7 |
| 20260904093023 | 26 | 186 | 0.0 | 9.7 | 0.00 | 0.00 | 0.00 | 81 | 990.7 |
| 20260904091527 | 26 | 108 | 1.6 | 6.4 | 0.00 | 0.00 | 0.00 | 81 | 990.7 |
| 20260904090025 | 26 | 194 | 3.2 | 9.7 | 0.00 | 0.00 | 0.00 | 80 | 990.7 |
| 20260904084521 | 26 | 180 | 1.6 | 8.0 | 0.00 | 0.00 | 0.00 | 80 | 990.7 |
| 20260904083022 | 26 | 170 | 1.6 | 4.8 | 0.00 | 0.00 | 0.00 | 80 | 990.6 |
| 20260904081519 | 26 | 104 | 0.0 | 6.4 | 0.00 | 0.00 | 0.00 | 79 | 990.6 |
| 20260904080020 | 26 | 169 | 1.6 | 8.0 | 0.00 | 0.00 | 0.00 | 79 | 990.5 |
| 20260904074519 | 26 | 221 | 3.2 | 9.7 | 0.00 | 0.00 | 0.00 | 78 | 990.5 |
| 20260904073016 | 27 | 115 | 1.6 | 11.3 | 0.00 | 0.00 | 0.00 | 77 | 990.6 |
| 20260904071528 | 27 | 82 | 3.2 | 8.0 | 0.00 | 0.00 | 0.00 | 77 | 990.7 |
| 20260904070013 | 27 | 112 | 1.6 | 6.4 | 0.00 | 0.00 | 0.00 | 76 | 990.8 |